Location: Unspecified
(0.0000°N, 0.0000°E)
Time: 13:30:28
(UTC+00:00)

Altair - Pass Details

Date: 23 July 2024
Orbit: 1502 x 1682 km, 47.2° (Epoch: 17 April)

Event Time Altitude Azimuth Distance (km) Brightness Sun altitude
Rises 03:00:30 0° 306° (NW) 4,667 - -43.0°
Reaches altitude 10° 03:03:38 10° 301° (WNW) 3,705 - -42.3°
Maximum altitude 03:12:30 47° 230° (SW) 1,993 - -40.3°
Exits shadow 03:20:39 14° 161° (SSE) 3,522 9.3 -38.5°
Drops below altitude 10° 03:21:46 10° 158° (SSE) 3,848 9.5 -38.2°
Sets 03:25:08 0° 152° (SSE) 4,859 10.2 -37.5°
